• Em Portugal
  • Lista de países
  • Para 7 dias
  • Temperatura da água
  • Mapas de satélite
  • Mapa do tempo
  • Widgets de tempo
  • user-avatar
    Iniciar Sessão

    Previsão horária em Tappita

    Hoje, 14 Novembro, Quarta-feira

    Tempo Temperatura Precipitação Vento Pressão Humidade
    00:00 +22°C° 0 mm 0 m/s 736 mmHg 98%
    01:00 +22°C° 0 mm 0 m/s 736 mmHg 98%
    02:00 +22°C° 0 mm 0 m/s 736 mmHg 99%
    03:00 +22°C° 0 mm 0 m/s 736 mmHg 99%
    04:00 +22°C° 0 mm 0 m/s 736 mmHg 99%
    05:00 +22°C° 0 mm 0 m/s 736 mmHg 99%
    06:00 +23°C° 0 mm 0 m/s 736 mmHg 93%
    07:00 +26°C° 0 mm 1 m/s 737 mmHg 88%
    08:00 +28°C° 0 mm 1 m/s 737 mmHg 83%
    09:00 +30°C° 0 mm 1 m/s 737 mmHg 73%
    10:00 +32°C° 0 mm 1 m/s 737 mmHg 63%
    11:00 +34°C° 0 mm 1 m/s 737 mmHg 52%
    12:00 +34°C° 0.1 mm 1 m/s 736 mmHg 53%
    13:00 +34°C° 0.1 mm 1 m/s 735 mmHg 54%
    14:00 +34°C° 0.1 mm 1 m/s 735 mmHg 54%
    15:00 +32°C° 0.7 mm 1 m/s 735 mmHg 65%
    16:00 +30°C° 0.7 mm 1 m/s 735 mmHg 76%
    17:00 +27°C° 0.7 mm 2 m/s 735 mmHg 87%
    18:00 +27°C° 1.1 mm 1 m/s 736 mmHg 90%
    19:00 +26°C° 1.1 mm 1 m/s 736 mmHg 93%
    20:00 +26°C° 1.1 mm 1 m/s 737 mmHg 96%
    21:00 +25°C° 1.3 mm 1 m/s 737 mmHg 96%
    22:00 +25°C° 1.3 mm 1 m/s 738 mmHg 96%
    23:00 +25°C° 1.3 mm 1 m/s 738 mmHg 96%

    Amanhã, 15 Novembro, Quinta-feira

    Tempo Temperatura Precipitação Vento Pressão Humidade
    00:00 +25°C° 0.2 mm 1 m/s 737 mmHg 97%
    01:00 +25°C° 0.2 mm 1 m/s 737 mmHg 97%
    02:00 +25°C° 0.2 mm 1 m/s 736 mmHg 97%
    03:00 +25°C° 0 mm 1 m/s 736 mmHg 97%
    04:00 +22°C° 0 mm 0 m/s 736 mmHg 98%
    05:00 +22°C° 0 mm 0 m/s 736 mmHg 98%
    06:00 +23°C° 0 mm 0 m/s 737 mmHg 93%
    07:00 +27°C° 0 mm 1 m/s 737 mmHg 88%
    08:00 +28°C° 0 mm 1 m/s 738 mmHg 83%
    09:00 +30°C° 0 mm 1 m/s 737 mmHg 73%
    10:00 +32°C° 0 mm 1 m/s 737 mmHg 64%
    11:00 +34°C° 0 mm 1 m/s 737 mmHg 54%
    12:00 +33°C° 0.5 mm 1 m/s 736 mmHg 59%
    13:00 +32°C° 0.5 mm 1 m/s 736 mmHg 65%
    14:00 +32°C° 0.5 mm 1 m/s 735 mmHg 71%
    15:00 +30°C° 0.8 mm 1 m/s 735 mmHg 78%
    16:00 +29°C° 0.8 mm 1 m/s 735 mmHg 85%
    17:00 +27°C° 0.8 mm 1 m/s 736 mmHg 92%
    18:00 +26°C° 0.1 mm 1 m/s 736 mmHg 93%
    19:00 +26°C° 0.1 mm 1 m/s 737 mmHg 95%
    20:00 +25°C° 0.1 mm 1 m/s 738 mmHg 96%
    21:00 +25°C° 0 mm 1 m/s 738 mmHg 97%
    22:00 +25°C° 0 mm 1 m/s 738 mmHg 97%
    23:00 +25°C° 0 mm 1 m/s 738 mmHg 98%

    Depois de amanhã, 16 Novembro, Sexta-feira

    Tempo Temperatura Precipitação Vento Pressão Humidade
    00:00 +25°C° 0 mm 1 m/s 737 mmHg 98%
    01:00 +24°C° 0 mm 1 m/s 737 mmHg 98%
    02:00 +22°C° 0 mm 0 m/s 736 mmHg 99%
    03:00 +22°C° 0 mm 0 m/s 737 mmHg 99%
    04:00 +22°C° 0 mm 0 m/s 737 mmHg 99%
    05:00 +22°C° 0 mm 0 m/s 737 mmHg 99%
    06:00 +23°C° 0 mm 0 m/s 738 mmHg 93%
    07:00 +27°C° 0 mm 1 m/s 738 mmHg 88%
    08:00 +28°C° 0 mm 1 m/s 739 mmHg 83%
    09:00 +30°C° 0.4 mm 1 m/s 739 mmHg 75%
    10:00 +32°C° 0.4 mm 1 m/s 738 mmHg 66%
    11:00 +32°C° 0.4 mm 0 m/s 738 mmHg 58%
    12:00 +34°C° 0.1 mm 1 m/s 737 mmHg 57%
    13:00 +34°C° 0.1 mm 1 m/s 736 mmHg 57%
    14:00 +34°C° 0.1 mm 1 m/s 735 mmHg 57%
    15:00 +32°C° 0.6 mm 1 m/s 736 mmHg 68%
    16:00 +30°C° 0.6 mm 1 m/s 736 mmHg 79%
    17:00 +28°C° 0.6 mm 1 m/s 736 mmHg 90%
    18:00 +27°C° 0.1 mm 1 m/s 736 mmHg 91%
    19:00 +26°C° 0.1 mm 1 m/s 737 mmHg 93%
    20:00 +26°C° 0.1 mm 1 m/s 738 mmHg 95%
    21:00 +25°C° 0.7 mm 1 m/s 738 mmHg 96%
    22:00 +25°C° 0.7 mm 1 m/s 738 mmHg 97%
    23:00 +25°C° 0.7 mm 1 m/s 738 mmHg 98%

    17 Novembro, Sábado

    Tempo Temperatura Precipitação Vento Pressão Humidade
    00:00 +25°C° 0.1 mm 1 m/s 738 mmHg 98%
    01:00 +25°C° 0.1 mm 1 m/s 737 mmHg 98%
    02:00 +24°C° 0.1 mm 1 m/s 737 mmHg 99%
    03:00 +22°C° 0 mm 0 m/s 737 mmHg 99%
    04:00 +22°C° 0 mm 0 m/s 737 mmHg 99%
    05:00 +22°C° 0 mm 0 m/s 737 mmHg 99%
    06:00 +23°C° 0 mm 0 m/s 738 mmHg 95%
    07:00 +26°C° 0 mm 1 m/s 739 mmHg 90%
    08:00 +27°C° 0 mm 1 m/s 739 mmHg 86%
    09:00 +29°C° 0.1 mm 1 m/s 739 mmHg 80%
    10:00 +30°C° 0.1 mm 1 m/s 739 mmHg 73%
    11:00 +31°C° 0.1 mm 1 m/s 738 mmHg 67%
    12:00 +31°C° 0.2 mm 1 m/s 738 mmHg 65%
    13:00 +32°C° 0.2 mm 1 m/s 737 mmHg 63%
    14:00 +33°C° 0.2 mm 1 m/s 736 mmHg 60%
    15:00 +31°C° 0.7 mm 1 m/s 736 mmHg 70%
    16:00 +29°C° 0.7 mm 1 m/s 737 mmHg 80%
    17:00 +27°C° 0.7 mm 1 m/s 737 mmHg 90%
    18:00 +26°C° 0.6 mm 1 m/s 737 mmHg 92%
    19:00 +26°C° 0.6 mm 1 m/s 738 mmHg 94%
    20:00 +25°C° 0.6 mm 1 m/s 739 mmHg 96%
    21:00 +25°C° 0.2 mm 1 m/s 739 mmHg 96%
    22:00 +24°C° 0.2 mm 1 m/s 738 mmHg 97%
    23:00 +24°C° 0.2 mm 1 m/s 738 mmHg 98%

    18 Novembro, Domingo

    Tempo Temperatura Precipitação Vento Pressão Humidade
    00:00 +22°C° 0 mm 0 m/s 737 mmHg 98%
    01:00 +22°C° 0 mm 0 m/s 737 mmHg 98%
    02:00 +22°C° 0 mm 0 m/s 736 mmHg 99%
    03:00 +22°C° 0 mm 0 m/s 736 mmHg 99%
    04:00 +22°C° 0 mm 0 m/s 737 mmHg 99%
    05:00 +21°C° 0 mm 0 m/s 737 mmHg 99%
    06:00 +22°C° 0 mm 0 m/s 737 mmHg 96%
    07:00 +24°C° 0 mm 0 m/s 738 mmHg 92%
    08:00 +25°C° 0 mm 0 m/s 738 mmHg 89%
    09:00 +26°C° 0 mm 0 m/s 738 mmHg 81%
    10:00 +28°C° 0 mm 0 m/s 738 mmHg 72%
    11:00 +30°C° 0 mm 0 m/s 737 mmHg 63%
    12:00 +32°C° 0.6 mm 1 m/s 737 mmHg 64%
    13:00 +32°C° 0.6 mm 1 m/s 736 mmHg 65%
    14:00 +32°C° 0.6 mm 1 m/s 735 mmHg 66%
    15:00 +30°C° 1.5 mm 1 m/s 735 mmHg 75%
    16:00 +28°C° 1.5 mm 1 m/s 736 mmHg 83%
    17:00 +26°C° 1.5 mm 1 m/s 736 mmHg 92%
    18:00 +26°C° 0.1 mm 1 m/s 736 mmHg 93%
    19:00 +25°C° 0.1 mm 1 m/s 737 mmHg 94%
    20:00 +25°C° 0.1 mm 1 m/s 738 mmHg 95%
    21:00 +25°C° 0 mm 1 m/s 737 mmHg 96%
    22:00 +22°C° 0 mm 0 m/s 737 mmHg 96%
    23:00 +22°C° 0 mm 0 m/s 737 mmHg 97%

    19 Novembro, Segunda-feira

    Tempo Temperatura Precipitação Vento Pressão Humidade
    00:00 +22°C° 0 mm 0 m/s 737 mmHg 97%
    01:00 +22°C° 0 mm 0 m/s 736 mmHg 97%
    02:00 +22°C° 0 mm 0 m/s 736 mmHg 98%
    03:00 +21°C° 0 mm 0 m/s 736 mmHg 98%
    04:00 +21°C° 0 mm 0 m/s 736 mmHg 98%
    05:00 +21°C° 0 mm 0 m/s 737 mmHg 98%
    06:00 +23°C° 0 mm 0 m/s 737 mmHg 92%
    07:00 +24°C° 0 mm 0 m/s 738 mmHg 87%
    08:00 +26°C° 0 mm 0 m/s 738 mmHg 81%
    09:00 +28°C° 0.1 mm 0 m/s 738 mmHg 71%
    10:00 +30°C° 0.1 mm 0 m/s 737 mmHg 62%
    11:00 +33°C° 0.1 mm 0 m/s 737 mmHg 52%
    12:00 +34°C° 0.4 mm 1 m/s 736 mmHg 55%
    13:00 +33°C° 0.4 mm 1 m/s 736 mmHg 59%
    14:00 +32°C° 0.4 mm 1 m/s 735 mmHg 62%
    15:00 +31°C° 0.7 mm 1 m/s 735 mmHg 71%
    16:00 +29°C° 0.7 mm 1 m/s 736 mmHg 80%
    17:00 +27°C° 0.7 mm 1 m/s 736 mmHg 89%
    18:00 +26°C° 0.2 mm 1 m/s 737 mmHg 91%
    19:00 +26°C° 0.2 mm 1 m/s 737 mmHg 93%
    20:00 +25°C° 0.2 mm 1 m/s 738 mmHg 95%
    21:00 +25°C° 0.9 mm 1 m/s 738 mmHg 96%
    22:00 +25°C° 0.9 mm 1 m/s 738 mmHg 96%
    23:00 +24°C° 0.9 mm 1 m/s 737 mmHg 97%
    Mostrar mais